SCP
0 0 0 0 0 0 0 0 0 0 0 0 0 0 0 0 0 0 0 0 0 0 0 0 0 0 0 0 0 0 0 0 0 0 0 0 0 0 0 0 0 0 0 0
0 0 0 0 0 0 0 0 0 0 0 0 0 0 0 0 0 0 0 0 0 0 0 0 0 0 0 0 0 0 0 0 0 0 0 0 0 0 0 0 0 0 0 0
0 0 0 0 0 0 0 0 0 0 0 0 0 0 0 0 0 0 0 0 0 0 0 0 0 0 0 0 0 0 0 0 0 0 0 0 0 0 0 0 0 0 0 0
0 0 0 0 0 0 0 0 0 0 0 0 0 0 0 0 0 0 0 0 0 0 0 0 0 0 0 0 0 0 0 0 0 0 0 0 0 0 0 0 0 0 0 0
0 0 0 0 0 0 0 0 0 0 0 0 0 0 0 0 0 0 0 0 0 0 0 0 0 0 0 0 0 0 0 0 0 0 0 0 0 0 0 0 0 0 0 0
0 0 0 0 0 0 0 0 0 0 0 0 0 0 0 0 0 0 0 0 0 0 0 0 0 0 0 0 0 0 0 0 0 0 0 0 0 0 0 0 0 0 0 0
0 0 0 0 0 0 0 0 0 0 0 0 0 0 0 0 0 0 0 0 0 0 0 0 0 0 0 0 0 0 0 0 0 0 0 0 0 0 0 0 0 0 0 0
0 0 0 0 0 0 0 0 0 0 0 0 0 0 0 0 0 0 0 0 0 0 0 0 0 0 0 0 0 0 0 0 0 0 0 0 0 0 0 0 0 0 0 0
0 0 0 0 0 0 0 0 0 0 0 0 0 0 0 0 0 0 0 0 0 0 0 0 0 0 0 0 0 0 0 0 0 0 0 0 0 0 0 0 0 0 0 0
0 0 0 0 0 0 0 0 0 0 0 0 0 0 0 0 0 0 0 0 0 0 0 0 0 0 0 0 0 0 0 0 0 0 0 0 0 0 0 0 0 0 0 0
0 0 0 0 0 0 0 0 0 0 0 0 0 0 0 0 0 0 0 0 0 0 0 0 0 0 0 0 0 0 0 0 0 0 0 0 0 0 0 0 0 0 0 0
0 0 0 0 0 0 0 0 0 0 0 0 0 0 0 0 0 0 0 0 0 0 0 0 0 0 0 0 0 0 0 0 0 0 0 0 0 0 0 0 0 0 0 0
0 0 0 0 0 0 0 0 0 0 0 0 0 0 0 0 0 0 0 0 0 0 0 0 0 0 0 0 0 0 0 0 0 0 0 0 0 0 0 0 0 0 0 0
0 0 0 0 0 0 0 0 0 0 0 0 0 0 0 0 0 0 0 0 0 0 0 0 0 0 0 0 0 0 0 0 0 0 0 0 0 0 0 0 0 0 0 0
0 0 0 0 0 0 0 0 0 0 0 0 0 0 0 0 0 0 0 0 0 0 0 0 0 0 0 0 0 0 0 0 0 0 0 0 0 0 0 0 0 0 0 0
0 0 0 0 0 0 0 0 0 0 0 0 0 0 0 0 0 0 0 0 0 0 0 0 0 0 0 0 0 0 0 0 0 0 0 0 0 0 0 0 0 0 0 0
0 0 0 0 0 0 0 0 0 0 0 0 0 0 0 0 0 0 0 0 0 0 0 0 0 0 0 0 0 0 0 0 0 0 0 0 0 0 0 0 0 0 0 0
0 0 0 0 0 0 0 0 0 0 0 0 0 0 0 0 0 0 0 0 0 0 0 0 0 0 0 0 0 0 0 0 0 0 0 0 0 0 0 0 0 0 0 0
0 0 0 0 0 0 0 0 0 0 0 0 0 0 0 0 0 0 0 0 0 0 0 0 0 0 0 0 0 0 0 0 0 0 0 0 0 0 0 0 0 0 0 0
0 0 0 0 0 0 0 0 0 0 0 0 0 0 0 0 0 0 0 0 0 0 0 0 0 0 0 0 0 0 0 0 0 0 0 0 0 0 0 0 0 0 0 0
0 0 0 0 0 0 0 0 0 0 0 0 0 0 0 0 0 0 0 0 0 0 0 0 0 0 0 0 0 0 0 0 0 0 0 0 0 0 0 0 0 0 0 0
0 0 0 0 0 0 0 0 0 0 0 0 0 0 0 0 0 0 0 0 0 0 0 0 0 0 0 0 0 0 0 0 0 0 0 0 0 0 0 0 0 0 0 0
0 0 0 0 0 0 0 0 0 0 0 0 0 0 0 0 0 0 0 0 0 0 0 0 0 0 0 0 0 0 0 0 0 0 0 0 0 0 0 0 0 0 0 0
0 0 0 0 0 0 0 0 0 0 0 0 0 0 0 0 0 0 0 0 0 0 0 0 0 0 0 0 0 0 0 0 0 0 0 0 0 0 0 0 0 0 0 0
0 0 0 0 0 0 0 0 0 0 0 0 0 0 0 0 0 0 0 0 0 0 0 0 0 0 0 0 0 0 0 0 0 0 0 0 0 0 0 0 0 0 0 0
0 0 0 0 0 0 0 0 0 0 0 0 0 0 0 0 0 0 0 0 0 0 0 0 0 0 0 0 0 0 0 0 0 0 0 0 0 0 0 0 0 0 0 0
Wind_Speed
3 4 6 9 9 6 4 4 6 7 5 3 9 13 15 9 7 9 9 9 9 8 3 2 2 3 4 5 7 7 8 7 7 5 4 4 3 2 2 2 3 3 3 3
3 7 9 6 4 3 3 4 6 8 4 4 7 12 13 10 9 11 12 13 12 8 5 4 3 3 4 5 6 7 8 8 6 5 4 3 4 3 3 2 3 4 3 3
11 6 6 6 5 5 5 6 7 7 5 4 5 10 9 7 5 6 8 9 10 12 10 8 6 4 5 6 7 7 7 7 7 7 5 5 4 3 2 2 2 3 3 3
7 5 4 5 7 8 7 8 7 5 3 5 2 8 10 7 8 7 8 8 10 9 9 8 7 6 6 5 5 7 7 7 7 7 7 6 4 3 2 2 2 2 3 3
8 7 7 8 9 11 8 2 3 2 3 4 3 5 11 6 9 10 9 10 10 10 11 10 9 7 6 6 6 6 7 6 6 6 7 7 5 4 3 2 3 2 3 3
5 4 7 9 5 7 5 5 4 4 3 4 5 6 11 7 8 8 5 7 9 10 9 8 7 6 5 5 6 6 7 6 6 6 6 7 8 6 5 3 2 1 1 2
3 4 3 4 5 3 5 5 2 4 1 7 3 4 13 12 8 8 9 7 9 10 10 10 10 9 8 8 7 7 8 6 6 6 6 6 7 7 6 5 3 2 1 1
9 7 8 7 8 9 7 10 8 6 5 5 2 8 12 10 7 7 7 5 8 10 10 11 11 11 10 9 8 8 8 7 7 7 6 6 6 4 4 4 3 3 2 1
11 8 3 6 5 12 8 6 6 5 2 4 7 8 13 7 5 4 2 3 7 10 11 11 10 10 10 10 10 9 9 7 7 7 6 6 6 5 5 4 3 2 2 2
10 6 3 3 4 2 7 9 6 5 4 5 6 6 7 9 7 6 4 4 6 7 9 9 10 10 9 9 8 8 8 8 7 7 6 5 5 5 5 4 4 3 2 2
7 7 2 3 8 10 6 5 6 6 5 5 4 8 8 7 7 7 7 6 7 9 11 11 10 9 8 7 8 8 8 7 7 7 6 6 5 5 4 4 3 3 2 2
7 7 5 7 5 6 7 9 9 7 6 5 4 10 7 5 7 6 7 5 6 8 8 8 8 8 9 9 9 9 8 8 8 7 6 6 5 5 4 4 3 3 3 3
10 8 5 0 1 2 4 6 8 6 5 6 6 10 5 4 4 4 5 5 5 6 7 7 8 10 11 11 10 9 9 9 7 7 7 6 5 5 5 4 3 3 3 3
10 7 9 12 8 9 7 7 8 8 6 7 10 11 10 8 7 6 5 5 4 6 8 9 10 10 10 10 10 10 9 8 8 8 7 7 6 6 5 4 4 3 3 4
8 7 6 6 5 7 8 10 12 12 12 11 11 12 15 12 9 8 6 4 4 6 8 10 11 10 10 9 9 9 9 8 8 8 7 7 5 4 4 4 4 3 4 4
7 7 7 5 6 6 6 8 11 12 10 11 9 12 13 9 5 6 7 6 7 8 9 9 9 10 11 11 11 10 9 9 8 8 7 6 5 4 4 4 4 3 4 4
8 8 7 5 3 2 8 11 12 9 9 10 14 17 10 6 8 9 8 8 9 9 8 9 10 10 10 11 10 11 9 8 8 7 6 5 5 4 4 4 3 4 5 4
11 9 5 4 4 9 10 7 11 10 10 11 10 9 8 9 7 5 6 7 8 7 6 7 7 7 7 7 7 8 8 8 8 6 5 5 4 4 4 3 4 5 4 5
7 10 6 5 6 7 8 5 8 10 10 11 13 11 6 2 1 5 6 6 6 5 5 5 5 6 6 8 8 9 8 7 7 6 5 5 4 4 4 4 5 5 4 5
4 6 7 6 6 8 9 5 5 6 7 8 10 11 6 6 2 6 2 3 3 3 4 5 6 6 7 7 8 9 8 7 6 5 5 4 4 4 5 6 5 4 4 6
5 4 6 6 6 9 8 3 8 6 10 5 7 8 9 9 7 2 3 3 3 4 5 6 7 7 6 7 8 8 7 6 5 4 3 3 3 4 5 4 4 4 5 6
11 8 7 7 6 10 6 8 10 10 3 3 4 6 8 7 3 3 3 4 5 5 6 7 7 6 5 6 8 7 5 4 3 3 3 3 3 3 3 4 5 5 5 6
9 10 9 11 10 6 8 10 7 4 5 5 5 5 7 6 5 5 4 5 5 5 6 6 8 7 5 5 6 6 4 3 3 2 3 3 3 3 3 4 5 5 5 5
5 3 5 5 7 6 6 5 4 5 5 4 5 6 8 7 7 6 6 5 5 5 5 6 8 7 5 4 4 4 3 3 3 2 3 3 3 4 4 4 4 5 5 6
8 7 5 5 5 3 6 8 8 6 5 4 4 5 7 7 7 7 7 7 6 5 5 6 7 6 5 4 3 3 3 3 2 3 3 4 4 5 5 5 5 6 6 7
7 10 10 9 9 8 8 7 7 8 8 8 7 5 4 7 7 7 7 6 6 6 6 6 5 5 4 4 3 2 2 3 3 3 4 3 4 4 4 5 7 11 13 17
Wind_Direction
128 124 191 201 195 191 183 208 251 259 264 252 254 263 271 263 229 233 228 222 223 226 217 173 136 119 116 122 134 144 144 144 140 134 132 128 121 106 86 74 73 76 80 87
102 223 214 189 177 183 198 242 265 281 274 231 270 274 268 254 231 223 219 216 212 207 195 182 165 146 138 138 138 140 145 147 148 139 130 124 123 110 93 78 66 61 70 79
186 216 181 162 172 186 213 215 239 260 311 312 309 296 285 279 248 245 228 213 201 196 192 184 174 166 149 149 151 147 145 143 137 129 114 99 87 79 74 65 57 38 60 74
214 222 153 169 194 177 236 225 223 249 287 290 335 295 287 276 284 260 237 214 203 195 183 180 177 171 167 161 147 138 137 135 135 137 138 138 137 138 142 128 98 58 55 65
218 189 176 195 204 177 211 207 188 228 223 285 280 255 281 295 278 268 242 219 206 194 183 182 179 172 162 153 146 138 131 128 132 134 138 130 123 126 122 109 97 73 52 58
216 200 189 201 199 173 146 84 63 49 75 274 235 213 277 256 244 271 265 221 203 189 181 173 163 153 150 147 144 141 135 130 133 132 133 135 136 138 134 130 120 97 67 54
220 229 206 157 120 118 128 114 8 330 321 252 239 221 254 256 252 254 265 238 199 182 175 170 169 170 167 164 161 153 145 141 142 138 138 142 144 147 149 151 151 146 129 99
181 230 202 184 166 165 176 158 173 212 235 279 271 240 257 266 275 274 264 232 184 180 180 181 181 177 174 172 168 161 156 150 152 148 146 144 145 145 149 154 155 162 170 186
178 220 222 191 170 147 151 192 173 146 206 267 270 278 296 288 289 302 301 197 189 187 185 184 180 179 177 177 176 170 162 157 159 157 148 148 150 151 154 154 154 163 181 192
149 189 222 154 102 81 154 149 124 150 200 246 272 267 255 287 297 306 282 236 212 191 186 185 184 184 182 179 172 168 166 164 162 159 159 156 158 158 156 155 167 179 191 192
139 152 157 148 180 175 138 150 153 158 175 184 251 265 233 247 274 281 273 243 212 197 194 191 189 183 176 169 169 171 170 162 162 164 160 154 160 158 158 168 182 188 198 210
148 139 183 221 220 184 170 173 155 169 213 197 207 265 268 259 274 266 269 249 215 203 196 189 181 174 175 178 178 177 174 172 171 165 160 162 162 160 168 184 197 198 212 227
148 143 142 277 299 169 194 191 185 166 156 177 195 259 285 293 292 270 264 256 221 200 189 182 180 185 187 185 183 181 180 177 167 161 160 163 169 175 186 198 206 210 220 239
140 147 177 193 198 176 189 200 185 168 190 211 221 246 278 284 285 284 273 254 224 206 193 190 193 194 191 187 184 182 181 173 165 162 166 175 183 188 194 202 211 220 227 241
141 174 192 198 183 167 188 195 189 198 205 211 229 233 249 254 252 260 262 248 219 215 206 201 199 194 187 184 182 180 176 171 166 165 174 185 185 185 192 206 220 230 239 246
147 168 172 208 205 194 215 217 204 213 220 229 247 259 251 254 246 252 252 239 232 228 217 207 198 190 188 187 182 177 175 171 165 170 179 178 177 186 201 216 226 239 252 259
156 144 152 208 200 174 243 215 201 204 205 197 223 242 250 245 238 239 242 234 232 231 217 205 199 195 190 184 176 177 171 159 162 170 173 176 181 195 213 222 231 246 255 260
153 150 147 154 141 222 238 214 199 206 222 209 222 238 235 231 239 242 230 226 232 224 210 201 191 185 175 164 159 153 149 155 161 167 174 180 185 204 219 230 243 252 253 256
149 144 137 149 198 259 285 246 187 194 244 221 221 239 240 211 334 281 233 214 221 213 196 182 169 157 148 151 148 141 145 150 158 171 182 189 192 206 223 239 249 252 255 261
93 125 135 148 180 226 239 228 169 136 260 241 205 223 203 143 187 262 230 180 176 149 141 137 130 125 137 142 139 139 148 156 174 184 190 193 196 209 227 241 251 254 254 261
130 130 152 162 202 248 244 177 123 166 237 238 194 198 172 185 203 204 124 118 125 119 120 125 126 130 139 139 136 141 151 174 182 174 180 195 210 222 234 246 253 263 268 273
163 162 173 159 192 243 213 149 182 212 211 181 181 182 181 193 159 142 142 135 131 124 123 127 125 122 127 137 137 143 164 173 159 162 185 217 232 241 246 251 265 267 268 275
189 182 177 186 207 219 180 195 210 179 187 196 187 186 169 171 182 172 162 153 146 140 137 131 130 125 126 136 140 149 167 155 152 169 213 236 250 253 250 251 263 270 265 269
233 161 152 211 248 238 224 230 224 200 204 201 186 171 166 176 177 171 163 158 152 145 142 136 135 136 141 145 143 154 159 155 160 203 237 248 256 265 261 255 253 259 263 268
188 162 170 219 253 277 259 227 218 206 200 184 170 172 177 170 170 169 167 166 160 150 144 144 147 148 155 153 153 159 161 156 185 228 247 255 253 257 265 260 251 260 248 254
179 171 175 209 208 194 223 220 195 189 198 190 171 166 169 172 170 163 165 163 157 153 146 144 145 149 156 156 164 176 177 175 197 240 251 252 256 260 263 272 280 270 271 281